Location: �chenoz-la-M�line
(47.6009°N, 6.1354°E)
Time: 11:55:51
(UTC+00:00)

Cosmos 841 Rocket - Pass Details

Date: 27 January 2021
Orbit: 746 x 773 km, 74.0° (Epoch: 02 March)

Event Time Altitude Azimuth Distance (km) Brightness Sun altitude
Exits shadow 04:16:53 60° 38° (NE) 862 3.8 -28.8°
Drops below altitude 10° 04:21:07 10° 24° (NNE) 2,284 6.2 -28.1°
Sets 04:23:30 0° 24° (NNE) 3,216 7.1 -27.7°
